Flag Weather past 2 weeks in Kãnpur, Uttar Pradesh, India

Now
54 °F

Fog.


Feels Like: 54 °F
Forecast: 57 / 82 °F
Wind: 2 mph from North

Location: Lucknow / Amausi

Current Time: Nov 26, 2014 at 7:35:22 AM

Latest Report: Nov 26, 2014 at 6:30 AM


Visibility: 1 mi

Pressure: 29.86 "Hg

Humidity: 82%

Dew point: 48 °F

Location of KãnpurLocation

Historic Weather in Kãnpur — Graph

°F

Kãnpur temperature yesterday

Maximum temperature yesterday: 79 °F (at 2:30 PM)
Minimum temperature yesterday: 48 °F (at 6:00 AM)
Average temperature yesterday: 65 °F

Past Weeks' High & Low Weather Summary

 TemperatureHumidityPressure
High84 °F (Nov 11, 2:30 PM)94% (Nov 13, 4:00 AM)30.80 "Hg (Nov 13, 4:00 AM)
Low48 °F (Nov 25, 6:00 AM)24% (Nov 15, 2:30 PM)29.83 "Hg (Nov 26, 4:00 AM)
Average68 °F58%29.96 "Hg
* Reported Nov 11 5:30 AM — Nov 26 6:00 AM, Kãnpur, Weather by CustomWeather, © 2014

Note: Actual official high and low records may vary slightly from our data, if they occured in-between our weather recording intervals... More about our weather records

Advertising

Kãnpur weather history for previous 24 hours

 ConditionsComfort  
Time TempWeatherWind HumidityBarometerVisibility
6:00 AM
Nov 26
54 °FFog.2 mph82%29.86 "Hg1 mi
5:30 AM55 °FFog.2 mph77%29.86 "Hg1 mi
5:00 AM55 °FFog.2 mph77%29.86 "Hg1 mi
4:00 AM57 °FFog.2 mph72%29.83 "Hg1 mi
3:00 AM57 °FHaze.2 mph72%29.86 "Hg1 mi
2:00 AM59 °FFog.2 mph68%29.86 "Hg1 mi
1:00 AM59 °FHaze.2 mph68%29.89 "Hg1 mi
12:00 AM59 °FHaze.2 mph72%29.89 "Hg1 mi
11:00 PM
Nov 25
59 °FHaze.2 mph72%29.92 "Hg1 mi
10:00 PM61 °FHaze.2 mph68%29.92 "Hg1 mi
9:00 PM61 °FHaze.2 mph68%29.92 "Hg1 mi
8:30 PM63 °FHaze.2 mph73%29.92 "Hg1 mi
8:00 PM64 °FHaze.2 mph68%29.92 "Hg1 mi
7:30 PM68 °FHaze.No wind60%29.92 "Hg1 mi
7:00 PM68 °FHaze.No wind60%29.92 "Hg1 mi
6:30 PM70 °FHaze.No wind57%29.92 "Hg1 mi
6:00 PM70 °FHaze.No wind53%29.92 "Hg1 mi
5:30 PM72 °FHaze.No wind50%29.89 "Hg1 mi
4:30 PM75 °FHaze.2 mph39%29.89 "Hg2 mi
3:30 PM77 °FHaze.5 mph34%29.89 "Hg2 mi
3:00 PM79 °FHaze.7 mph34%29.89 "Hg2 mi
2:30 PM79 °FHaze.7 mph34%29.92 "Hg2 mi
2:00 PM77 °FHaze.5 mph34%29.92 "Hg2 mi
1:30 PM77 °FHaze.5 mph34%29.95 "Hg2 mi
1:00 PM77 °FHaze.3 mph34%29.98 "Hg2 mi
12:30 PM77 °FHaze.3 mph34%29.98 "Hg2 mi
12:00 PM77 °FHaze.3 mph32%30.01 "Hg2 mi
11:30 AM75 °FHaze.3 mph34%30.01 "Hg2 mi
11:00 AM72 °FHaze.3 mph47%30.04 "Hg2 mi
10:30 AM70 °FHaze.3 mph50%30.04 "Hg2 mi
9:30 AM64 °FHaze.2 mph56%30.04 "Hg1 mi
9:00 AM61 °FHaze.No wind68%30.04 "Hg1 mi
8:30 AM57 °FHaze.No wind72%30.04 "Hg1 mi
7:30 AM48 °FFog.No wind94%30.01 "Hg1 mi
7:00 AM48 °FFog.No wind94%30.01 "Hg1 mi
Weather by CustomWeather, © 2014

See weather overviewHow to use our weather pages